PGT66W LTFD-LTFJ

Flight info

Callsign PGT66W
Flight time 0h 28m
Altitude 23000
Route ECZIM Y371 VUTZO
Aircraft A320/M-SDE3FGHIRWY/LB1

Departure

Time 2026-04-29 17:44
Airport Balıkesir Koca Seyit Airport (LTFD)

Arrival

Time 2026-04-29 18:12
Airport Istanbul Sabiha Gökçen International Airport (LTFJ)
Time Latitude Longitude Altitude Speed Heading
2026-04-29 17:09 39.54925 27.01161 50 ft 0 kts 142°
2026-04-29 17:35 39.54925 27.01160 50 ft 1 kts 142°
2026-04-29 17:35 39.54943 27.01143 48 ft 3 kts 142°
2026-04-29 17:36 39.54958 27.01128 49 ft 3 kts 124°
2026-04-29 17:36 39.54962 27.01105 45 ft 3 kts 65°
2026-04-29 17:36 39.54950 27.01081 47 ft 3 kts 53°
2026-04-29 17:36 39.54945 27.01073 47 ft 0 kts 53°
2026-04-29 17:38 39.54947 27.01076 47 ft 3 kts 53°
2026-04-29 17:38 39.54971 27.01106 47 ft 4 kts 25°
2026-04-29 17:39 39.55021 27.01078 50 ft 11 kts 325°
2026-04-29 17:39 39.55088 27.01017 48 ft 13 kts 324°
2026-04-29 17:39 39.55154 27.00948 48 ft 12 kts 310°
2026-04-29 17:39 39.55144 27.00851 46 ft 12 kts 236°
2026-04-29 17:40 39.55097 27.00767 47 ft 11 kts 234°
2026-04-29 17:40 39.55051 27.00684 46 ft 12 kts 234°
2026-04-29 17:40 39.55000 27.00594 45 ft 12 kts 233°
2026-04-29 17:40 39.54953 27.00512 47 ft 10 kts 233°
2026-04-29 17:41 39.54914 27.00444 48 ft 9 kts 233°
2026-04-29 17:41 39.54876 27.00377 47 ft 9 kts 233°
2026-04-29 17:41 39.54837 27.00309 47 ft 9 kts 233°
2026-04-29 17:41 39.54773 27.00199 48 ft 20 kts 233°
2026-04-29 17:42 39.54680 27.00038 45 ft 25 kts 233°
2026-04-29 17:42 39.54574 26.99851 43 ft 27 kts 233°
2026-04-29 17:42 39.54485 26.99718 41 ft 13 kts 203°
2026-04-29 17:42 39.54418 26.99669 40 ft 11 kts 245°
2026-04-29 17:43 39.54444 26.99617 43 ft 4 kts 359°
2026-04-29 17:43 39.54450 26.99627 43 ft 0 kts 56°
2026-04-29 17:44 39.54459 26.99645 43 ft 20 kts 56°
2026-04-29 17:44 39.54710 27.00085 46 ft 96 kts 53°
2026-04-29 17:44 39.55218 27.00993 52 ft 150 kts 55°
2026-04-29 17:44 39.55833 27.02108 657 ft 150 kts 54°
2026-04-29 17:45 39.56467 27.03215 1247 ft 158 kts 54°
2026-04-29 17:45 39.57168 27.04447 1652 ft 180 kts 54°
2026-04-29 17:45 39.57958 27.05841 2032 ft 205 kts 54°
2026-04-29 17:45 39.58849 27.07420 2506 ft 228 kts 53°
2026-04-29 17:46 39.59802 27.09097 3402 ft 233 kts 53°
2026-04-29 17:46 39.60766 27.10802 4304 ft 238 kts 53°
2026-04-29 17:46 39.61755 27.12553 5213 ft 243 kts 52°
2026-04-29 17:46 39.62757 27.14336 6143 ft 247 kts 52°
2026-04-29 17:47 39.63778 27.16155 7021 ft 252 kts 51°
2026-04-29 17:47 39.64815 27.18001 7905 ft 255 kts 52°
2026-04-29 17:47 39.65876 27.19885 8792 ft 261 kts 51°
2026-04-29 17:47 39.66956 27.21805 9693 ft 266 kts 51°
2026-04-29 17:48 39.68071 27.23786 10353 ft 282 kts 51°
2026-04-29 17:48 39.69278 27.25927 10724 ft 306 kts 51°
2026-04-29 17:48 39.70590 27.28238 11030 ft 330 kts 49°
2026-04-29 17:48 39.72218 27.30415 11570 ft 341 kts 37°
2026-04-29 17:49 39.74202 27.32127 12336 ft 344 kts 25°
2026-04-29 17:49 39.76431 27.33289 13130 ft 348 kts 15°
2026-04-29 17:49 39.78759 27.34235 13923 ft 353 kts 15°
2026-04-29 17:49 39.81117 27.35191 14615 ft 358 kts 15°
2026-04-29 17:50 39.83505 27.36163 15336 ft 361 kts 14°
2026-04-29 17:50 39.85915 27.37162 16059 ft 366 kts 14°
2026-04-29 17:50 39.88353 27.38173 16766 ft 370 kts 14°
2026-04-29 17:50 39.90821 27.39182 17473 ft 373 kts 13°
2026-04-29 17:51 39.93314 27.40197 18168 ft 378 kts 13°
2026-04-29 17:51 39.95833 27.41228 18802 ft 381 kts 13°
2026-04-29 17:51 39.98373 27.42279 19408 ft 385 kts 13°
2026-04-29 17:51 40.00932 27.43337 19988 ft 388 kts 13°
2026-04-29 17:52 40.03517 27.44402 20598 ft 391 kts 13°
2026-04-29 17:52 40.05278 27.45124 20999 ft 393 kts 13°
2026-04-29 17:52 40.08754 27.46565 21770 ft 398 kts 13°
2026-04-29 17:52 40.11414 27.47660 22361 ft 401 kts 13°
2026-04-29 17:53 40.14076 27.48759 22913 ft 399 kts 13°
2026-04-29 17:53 40.16709 27.49864 23099 ft 396 kts 13°
2026-04-29 17:53 40.19330 27.50953 23116 ft 394 kts 13°
2026-04-29 17:53 40.21887 27.52281 23123 ft 400 kts 26°
2026-04-29 17:54 40.24084 27.54551 23112 ft 409 kts 45°
2026-04-29 17:54 40.25725 27.57626 23115 ft 415 kts 56°
2026-04-29 17:54 40.27201 27.60861 23040 ft 410 kts 56°
2026-04-29 17:54 40.28663 27.64014 22774 ft 401 kts 55°
2026-04-29 17:55 40.30119 27.67117 22505 ft 397 kts 55°
2026-04-29 17:55 40.31558 27.70192 22237 ft 395 kts 55°
2026-04-29 17:55 40.32987 27.73256 21973 ft 393 kts 55°
2026-04-29 17:55 40.34397 27.76264 21708 ft 390 kts 55°
2026-04-29 17:56 40.35830 27.79320 21264 ft 388 kts 55°
2026-04-29 17:56 40.37230 27.82333 20777 ft 386 kts 55°
2026-04-29 17:56 40.38631 27.85332 20310 ft 385 kts 55°
2026-04-29 17:56 40.40028 27.88316 19847 ft 383 kts 55°
2026-04-29 17:57 40.41388 27.91260 19384 ft 382 kts 56°
2026-04-29 17:57 40.42778 27.94271 18930 ft 381 kts 56°
2026-04-29 17:57 40.44136 27.97194 18466 ft 380 kts 56°
2026-04-29 17:57 40.45065 27.99197 18121 ft 379 kts 56°
2026-04-29 17:58 40.46874 28.03101 17513 ft 376 kts 56°
2026-04-29 17:58 40.48226 28.06021 17072 ft 373 kts 56°
2026-04-29 17:58 40.49568 28.08927 16620 ft 370 kts 56°
2026-04-29 17:58 40.50896 28.11811 16189 ft 368 kts 56°
2026-04-29 17:59 40.52221 28.14670 15763 ft 365 kts 56°
2026-04-29 17:59 40.53535 28.17514 15336 ft 363 kts 56°
2026-04-29 17:59 40.54840 28.20346 14898 ft 361 kts 57°
2026-04-29 17:59 40.56129 28.23168 14479 ft 359 kts 57°
2026-04-29 18:00 40.56981 28.25026 14194 ft 358 kts 56°
2026-04-29 18:00 40.58699 28.28766 13572 ft 356 kts 57°
2026-04-29 18:00 40.59975 28.31546 13133 ft 353 kts 57°
2026-04-29 18:00 40.61039 28.34436 12803 ft 349 kts 69°
2026-04-29 18:01 40.61777 28.37441 12554 ft 341 kts 71°
2026-04-29 18:01 40.62477 28.40401 12291 ft 337 kts 71°
2026-04-29 18:01 40.63175 28.43329 12041 ft 334 kts 70°
2026-04-29 18:01 40.63881 28.46244 11788 ft 333 kts 70°
2026-04-29 18:02 40.64583 28.49136 11536 ft 331 kts 70°
2026-04-29 18:02 40.65274 28.52018 11209 ft 328 kts 70°
2026-04-29 18:02 40.65960 28.54894 10696 ft 330 kts 70°
2026-04-29 18:02 40.66641 28.57747 10502 ft 321 kts 70°
2026-04-29 18:03 40.67298 28.60497 10358 ft 310 kts 70°
2026-04-29 18:03 40.67945 28.63186 10032 ft 307 kts 70°
2026-04-29 18:03 40.68582 28.65856 9647 ft 304 kts 70°
2026-04-29 18:03 40.69215 28.68503 9265 ft 302 kts 69°
2026-04-29 18:04 40.69845 28.71128 8856 ft 299 kts 70°
2026-04-29 18:04 40.70462 28.73735 8479 ft 296 kts 70°
2026-04-29 18:04 40.71073 28.76313 8085 ft 293 kts 69°
2026-04-29 18:04 40.71680 28.78875 7670 ft 291 kts 70°
2026-04-29 18:05 40.72281 28.81391 7204 ft 284 kts 70°
2026-04-29 18:05 40.72871 28.83856 6716 ft 280 kts 70°
2026-04-29 18:05 40.73451 28.86308 6281 ft 279 kts 69°
2026-04-29 18:05 40.74024 28.88741 5863 ft 277 kts 71°
2026-04-29 18:06 40.74583 28.91119 5473 ft 273 kts 71°
2026-04-29 18:06 40.75144 28.93499 5078 ft 270 kts 72°
2026-04-29 18:06 40.75698 28.95845 4760 ft 264 kts 72°
2026-04-29 18:06 40.76234 28.98097 4630 ft 251 kts 72°
2026-04-29 18:07 40.76823 29.00168 4509 ft 230 kts 64°
2026-04-29 18:07 40.77529 29.01993 4322 ft 221 kts 60°
2026-04-29 18:07 40.78358 29.03696 3995 ft 220 kts 54°
2026-04-29 18:07 40.79283 29.05297 3678 ft 219 kts 52°
2026-04-29 18:08 40.80218 29.06868 3432 ft 216 kts 52°
2026-04-29 18:08 40.81145 29.08427 3122 ft 217 kts 52°
2026-04-29 18:08 40.82054 29.09976 2996 ft 208 kts 55°
2026-04-29 18:08 40.82729 29.11586 2999 ft 194 kts 64°
2026-04-29 18:09 40.83298 29.13136 3025 ft 184 kts 64°
2026-04-29 18:09 40.83851 29.14646 2995 ft 181 kts 64°
2026-04-29 18:09 40.84404 29.16160 2829 ft 183 kts 64°
2026-04-29 18:09 40.84954 29.17653 2573 ft 180 kts 64°
2026-04-29 18:10 40.85498 29.19122 2305 ft 174 kts 64°
2026-04-29 18:10 40.86015 29.20519 2034 ft 164 kts 64°
2026-04-29 18:10 40.86499 29.21828 1779 ft 154 kts 65°
2026-04-29 18:10 40.86960 29.23075 1543 ft 148 kts 64°
2026-04-29 18:11 40.87404 29.24275 1322 ft 141 kts 65°
2026-04-29 18:11 40.87825 29.25416 1099 ft 137 kts 64°
2026-04-29 18:11 40.88245 29.26550 852 ft 137 kts 63°
2026-04-29 18:11 40.88656 29.27676 682 ft 135 kts 62°
2026-04-29 18:12 40.88932 29.28430 530 ft 134 kts 61°
2026-04-29 18:12 40.89337 29.29523 311 ft 131 kts 61°
2026-04-29 18:12 40.89685 29.30459 311 ft 91 kts 63°
2026-04-29 18:12 40.89890 29.31003 311 ft 45 kts 63°
2026-04-29 18:13 40.90033 29.31259 310 ft 25 kts 37°
2026-04-29 18:13 40.90125 29.31341 311 ft 12 kts 34°
2026-04-29 18:13 40.90206 29.31413 311 ft 16 kts 34°
2026-04-29 18:13 40.90288 29.31523 311 ft 18 kts 65°
2026-04-29 18:14 40.90347 29.31687 311 ft 21 kts 64°
2026-04-29 18:14 40.90414 29.31868 310 ft 23 kts 64°
2026-04-29 18:14 40.90486 29.32062 311 ft 24 kts 64°
2026-04-29 18:14 40.90549 29.32231 311 ft 15 kts 64°
2026-04-29 18:15 40.90579 29.32310 311 ft 10 kts 57°
2026-04-29 18:15 40.90651 29.32316 311 ft 13 kts 335°
2026-04-29 18:15 40.90729 29.32257 311 ft 8 kts 310°
2026-04-29 18:15 40.90727 29.32194 311 ft 7 kts 250°
2026-04-29 18:16 40.90721 29.32136 311 ft 7 kts 301°
2026-04-29 18:16 40.90794 29.32085 311 ft 13 kts 334°
2026-04-29 18:16 40.90840 29.32028 311 ft 8 kts 292°
2026-04-29 18:16 40.90874 29.31980 311 ft 7 kts 321°
2026-04-29 18:17 40.90867 29.31932 311 ft 4 kts 240°
2026-04-29 18:17 40.90859 29.31909 310 ft 2 kts 243°
2026-04-29 18:17 40.90856 29.31903 310 ft 0 kts 244°